Location: Unspecified
(33.6682°S, 0.0000°E)
Time: 03:57:12
(UTC+00:00)

Tiros 1 despin weight - Pass Details

Date: 17 June 2019
Orbit: 594 x 642 km, 48.2° (Epoch: 21 July)

Event Time Altitude Azimuth Distance (km) Brightness Sun altitude
Rises 17:15:55 0° 226° (SW) 2,972 ? -4.1°
Reaches altitude 10° 17:18:50 10° 209° (SSW) 2,057 ? -4.6°
Maximum altitude 17:22:19 20° 162° (SSE) 1,503 ? -5.3°
Drops below altitude 10° 17:25:46 10° 114° (ESE) 2,037 ? -5.9°
Enters shadow 17:26:35 - 108° (ESE) 2,270 ? -6.1°
Sets 17:28:39 0° 97° (E) 2,934 - -6.5°
